Tracking 19709 objects as of 20-Jun-2019
HD Live streaming from Space Station
objects crossing your sky now

FENGYUN 1C DEB

Track FENGYUN 1C DEB now!
10-day predictions


NORAD ID: 31655
Int'l Code: 1999-025CBM
Perigee: 839.0 km
Apogee: 1,333.9 km
Inclination: 99.3 °
Period: 106.8 minutes
Semi major axis: 7457 km
RCS: 0.0098 m2 (small)
Launch date: May 10, 1999
Source: People's Republic of China (PRC)
Launch site: Taiyaun Space Center, China (TSC)

Note: This is SATELLITE DEBRIS
aabbcc
Your satellite tracking list
Your tracking list is empty




NASA's NSSDC Master Catalog

Two Line Element Set (TLE):
1 31655U 99025CBM 19170.09958050 -.00000042  00000-0 -26393-5 0  9995
2 31655  99.2984 226.2351 0331817  17.7888  12.2111 13.48073568603266
Source of the keplerian elements: AFSPC